User: anonymous   Login
Location: Unspecified
(0.0000°N, 0.0000°E)
Time: 13:10:01
(UTC+01:00)
Language:

Resurs 1-3 - Orbit

View from above orbital plane
View from above orbital plane
View from above satellite
View from above satellite

Ground track
Ground track

The orbit data is extracted from the following two-line orbital elements,

1 23342U 94074A   14352.51969980  .00000996  00000-0  14326-3 0  3795
2 23342 098.1607 005.3036 0001776 121.4594 030.4605 14.78653658 83025
Epoch (UTC): 18 December 2014 12:28:22
Eccentricity: 0.0001776
inclination: 98.1607°
perigee height: 632 km
apogee height: 635 km
right ascension of ascending node: 5.3036°
argument of perigee: 121.4594°
revolutions per day: 14.78653658
mean anomaly at epoch: 30.4605°
orbit number at epoch: 8302

The dashed part of the orbit path shows where the satellite is in the earth's shadow,  

DLR